Wind_Speed
15 15 17 17 14 13 13 13 12 10 11 11 7 6 9 10 9 10 14 17 18 20 22 22 23 26 24 21 18 17 19 22 22 20 19 18 18 17 18 18 19 19 19 18 19 20 19 19 21 22 24 25 26 26 27 27 28 28 29 30 29 28 28 29 29 29 28 29 29 29 29 29 28 28 28 29 29 29 28 29 31 30 28 29 28 28
15 17 17 15 13 11 10 12 14 15 16 15 12 9 9 9 10 12 15 16 17 19 21 20 23 28 26 23 20 18 20 22 22 21 21 20 20 19 18 18 19 20 20 21 22 21 20 20 21 23 24 25 26 26 28 28 28 29 31 32 31 31 31 31 31 31 30 30 31 31 31 31 31 31 31 31 30 30 29 31 33 33 31 31 30 30
16 17 14 12 15 14 13 14 16 17 17 17 17 14 11 10 10 13 15 16 17 19 21 20 25 30 28 26 23 20 22 22 21 22 22 22 22 21 20 20 20 21 21 21 21 21 22 22 22 22 23 24 25 27 28 29 29 30 31 32 32 33 33 32 32 32 31 31 32 33 33 32 33 33 32 32 32 31 30 32 34 34 34 33 32 31
15 15 15 15 17 17 16 16 15 15 16 17 17 15 14 11 10 12 12 13 15 16 19 21 27 32 29 28 27 22 22 23 21 22 22 22 23 22 22 22 23 22 21 21 21 21 22 22 23 23 23 23 25 26 28 30 30 31 31 32 32 33 34 34 33 34 33 33 33 34 34 34 34 34 34 33 33 32 31 32 35 35 34 34 33 32
13 12 15 17 18 17 17 17 15 15 15 16 17 16 14 11 9 12 13 13 15 17 20 22 26 33 32 28 27 25 24 25 24 24 24 23 24 23 23 23 22 22 21 21 21 22 23 23 22 22 22 22 24 26 27 29 30 30 31 31 31 32 33 34 34 34 34 35 35 35 35 35 35 35 35 34 33 32 32 32 35 35 34 35 34 33
14 13 13 15 16 17 16 16 15 15 15 15 16 16 16 13 12 14 14 15 16 16 19 18 14 23 33 29 25 25 25 26 24 24 24 23 23 23 22 23 23 22 22 22 23 24 23 22 20 20 20 22 24 26 27 28 28 28 29 29 30 30 31 32 33 33 34 35 35 35 36 36 36 36 35 35 34 33 33 33 35 35 35 35 35 35
18 17 15 16 17 15 14 14 15 16 15 14 13 13 12 14 16 17 16 14 12 10 14 14 8 17 33 34 27 25 26 27 27 25 23 22 22 21 20 23 24 24 23 23 23 23 22 20 19 18 19 21 23 25 26 27 27 26 25 26 27 28 28 29 30 31 31 32 33 34 35 35 36 36 35 35 35 36 35 35 36 36 36 37 36 37
21 20 19 20 20 18 17 14 14 15 15 15 14 12 11 13 14 15 15 13 14 16 19 21 16 17 30 36 30 28 31 30 28 28 25 24 24 22 21 23 24 24 23 22 22 22 21 20 19 19 20 21 22 24 25 25 25 25 24 23 23 24 25 26 26 27 28 29 30 31 32 33 34 34 34 35 36 36 37 36 37 37 37 38 38 38
22 22 21 22 23 22 21 18 15 14 14 15 15 13 14 15 14 13 12 12 14 19 21 22 18 12 21 35 34 32 35 33 30 28 27 26 25 24 23 22 23 23 22 22 21 20 20 19 19 19 20 21 22 24 25 25 24 24 24 22 22 22 22 23 23 24 24 25 26 27 28 30 31 32 33 34 35 36 36 36 37 38 38 39 39 39
21 20 19 21 23 24 23 20 19 16 15 16 15 14 15 14 13 10 11 13 13 14 19 21 18 11 16 32 38 35 35 33 30 27 26 25 23 20 18 18 18 17 17 18 18 17 17 18 19 19 20 21 22 23 25 25 23 22 22 22 22 22 22 22 22 22 22 23 24 24 26 27 28 30 32 33 35 35 35 36 36 38 38 39 40 40
23 19 19 21 21 23 23 20 19 19 19 19 16 15 14 13 13 12 13 14 9 10 17 18 17 14 10 16 25 31 31 25 18 18 22 22 16 12 11 13 14 14 16 18 19 18 17 17 19 20 20 20 21 23 24 26 24 21 21 22 23 24 23 23 23 23 23 23 24 24 25 26 27 29 31 32 33 33 34 35 35 37 38 39 40 41
27 22 21 23 22 22 21 20 20 19 21 21 18 15 11 9 10 11 12 9 5 6 8 7 8 13 14 8 4 8 14 14 10 14 21 20 15 13 13 15 18 21 25 24 19 18 16 19 22 21 21 21 21 23 25 27 26 23 22 23 24 26 26 25 24 24 24 23 24 25 26 26 27 28 30 31 31 32 32 33 34 35 37 38 40 41
28 28 26 24 25 25 22 20 20 20 21 20 16 11 6 3 3 5 5 4 7 9 8 7 8 14 29 31 18 13 15 19 21 22 23 22 21 22 19 16 15 18 20 18 16 16 19 24 23 21 21 21 22 24 26 29 29 26 24 24 25 26 26 25 24 23 23 23 23 24 25 26 27 28 29 30 30 31 31 32 33 34 36 38 39 40
22 24 29 30 29 29 26 24 22 21 20 20 19 17 12 5 1 3 5 3 6 10 11 10 8 15 31 36 30 23 21 23 24 21 20 23 26 23 16 13 13 16 15 14 16 19 25 24 21 20 21 21 23 25 27 31 32 29 27 26 25 25 24 23 22 22 23 23 23 24 26 27 28 28 29 30 31 31 31 31 32 34 36 37 37 38
19 16 25 30 30 30 30 29 26 22 20 21 23 23 22 17 10 4 2 2 3 5 8 10 9 12 15 16 15 9 8 12 13 13 14 18 21 17 13 18 24 23 19 18 21 24 24 20 20 22 22 22 24 26 28 32 35 33 31 29 26 24 23 23 23 23 23 24 25 26 27 28 29 29 30 31 31 31 31 31 32 33 35 35 35 36
20 18 21 20 22 26 27 28 28 25 22 20 20 22 26 28 22 11 5 8 7 3 5 11 15 22 21 21 23 18 16 17 14 14 16 17 18 17 18 25 26 24 19 20 24 24 21 21 23 24 22 24 26 25 28 33 37 37 34 31 26 24 23 23 24 24 25 26 27 27 28 28 29 29 29 30 30 30 30 31 31 33 34 35 34 35
17 16 18 17 18 21 21 22 25 26 23 19 21 27 30 29 26 17 11 15 11 6 12 17 24 37 35 32 35 29 26 26 23 22 20 19 21 23 28 29 24 23 21 21 23 24 24 25 24 22 23 26 26 25 28 34 38 38 35 31 26 23 23 23 24 24 25 25 26 26 27 28 29 29 29 29 29 29 30 30 30 32 33 34 34 34
18 14 16 19 21 22 22 21 23 28 27 23 25 30 30 25 24 20 9 6 5 5 13 18 26 36 30 24 23 16 12 13 14 16 14 13 16 21 23 20 16 18 18 20 24 25 26 24 21 21 24 25 25 26 31 36 38 38 35 30 25 23 23 22 22 23 23 23 23 25 27 28 29 29 28 28 28 28 29 29 30 30 31 32 33 33
21 17 16 18 21 22 22 23 25 29 32 32 30 27 24 18 17 20 12 4 4 3 7 17 25 31 35 35 29 21 19 16 14 16 15 13 13 11 9 6 8 15 16 20 24 25 23 21 20 23 24 23 26 30 33 36 38 37 34 29 25 23 21 21 22 23 22 22 22 23 25 27 29 30 29 29 29 29 29 29 29 29 29 30 31 32
24 20 16 18 21 20 21 26 30 33 34 36 31 25 25 21 14 18 20 14 8 3 4 14 16 24 43 46 34 29 28 23 20 20 17 13 9 6 4 9 18 21 20 21 24 24 21 21 22 24 22 24 28 31 34 36 37 36 31 27 24 22 21 22 24 24 22 21 22 23 24 26 28 30 31 31 31 30 30 30 30 30 29 29 29 30
29 24 19 17 20 21 25 29 32 33 33 35 34 28 29 28 19 15 20 23 18 6 4 6 8 27 47 37 21 17 14 11 12 13 13 14 13 8 17 25 23 20 20 22 24 23 22 24 26 25 24 25 27 30 33 35 35 33 28 25 23 22 22 24 25 24 24 24 25 26 28 29 30 31 32 32 33 32 32 31 31 31 31 31 30 30
30 29 25 21 23 26 30 30 28 30 31 33 36 35 35 35 29 17 12 22 27 16 11 7 6 34 52 33 18 15 10 12 13 12 13 14 17 27 33 27 19 18 20 22 23 23 25 29 29 27 25 24 24 26 30 33 32 29 25 22 22 23 24 26 27 27 27 28 29 30 31 33 34 34 33 32 33 33 34 33 32 32 32 32 32 32
30 30 26 26 30 31 30 29 26 27 30 32 34 35 37 38 38 28 13 16 24 24 26 17 10 38 57 38 28 27 21 24 26 24 27 31 33 33 27 20 20 20 22 23 24 26 29 31 28 22 20 19 19 23 28 31 30 26 24 22 23 25 25 27 29 30 31 32 33 33 34 35 38 38 37 35 34 33 33 34 33 32 32 32 33 33
28 28 25 24 25 25 24 25 27 27 29 33 35 35 36 38 39 35 26 21 18 20 26 17 9 39 60 45 38 39 34 34 35 34 36 36 33 24 17 19 22 23 27 29 30 32 32 28 21 17 17 17 19 22 27 30 29 25 23 23 25 27 28 30 31 32 33 34 36 38 38 38 40 41 41 39 38 35 32 32 32 32 32 33 33 33
25 27 27 18 10 10 13 15 21 28 30 34 36 35 36 38 34 31 31 29 21 21 26 16 11 38 58 49 44 44 38 36 36 35 37 35 32 26 24 26 26 28 34 33 29 32 31 23 16 16 18 19 20 23 27 30 29 26 26 28 30 31 33 34 34 36 38 38 39 41 42 42 43 43 43 42 41 39 34 32 31 31 32 32 33 33
21 24 26 20 11 8 9 8 14 25 31 34 36 36 36 37 33 28 27 25 23 28 34 26 23 41 56 53 48 47 42 39 37 36 38 39 38 36 36 35 32 33 37 36 32 32 30 23 20 19 19 20 20 22 27 29 29 29 30 33 35 37 38 39 40 42 44 44 44 45 45 46 46 45 44 44 44 42 37 33 31 31 31 31 32 32
18 20 24 26 25 23 17 6 4 11 22 29 33 36 37 38 37 33 28 26 28 31 36 38 37 45 57 57 53 52 48 44 42 42 43 44 43 41 39 39 39 38 38 38 38 37 33 26 23 21 19 19 20 23 27 29 31 32 35 38 40 41 43 44 46 48 48 48 48 47 48 49 49 48 46 46 46 44 40 36 33 31 31 31 31 31
21 22 24 26 29 31 26 14 6 4 9 15 19 25 32 36 38 37 35 37 38 29 30 43 46 45 53 58 56 55 53 50 49 47 44 41 38 36 36 38 42 43 42 41 44 44 39 31 27 25 22 21 22 25 29 32 34 35 37 40 43 46 46 47 48 50 50 50 49 49 50 50 50 49 48 47 48 45 42 39 36 33 32 31 31 31
28 30 31 30 30 32 32 27 21 16 14 15 15 15 18 23 30 35 39 44 45 38 38 47 47 44 49 55 57 56 53 51 51 48 44 41 39 38 40 42 43 44 45 45 45 44 41 36 32 30 29 30 31 31 33 34 36 38 39 41 44 47 48 47 48 50 51 52 52 52 52 52 52 51 49 49 49 46 44 41 38 35 33 32 32 32
30 33 38 36 35 37 37 35 34 32 31 32 30 25 20 18 20 26 33 38 42 44 45 46 47 49 52 53 56 56 52 51 52 51 49 48 45 44 44 44 45 45 45 45 44 42 39 35 31 30 32 35 37 38 38 37 38 38 39 41 44 46 46 46 48 50 52 55 56 56 55 54 53 52 51 51 50 46 44 43 40 37 34 33 33 32
28 31 34 32 31 36 41 41 40 40 40 41 40 38 35 31 30 31 33 33 34 38 41 43 47 53 55 51 50 51 50 50 51 50 49 48 46 46 46 46 47 46 45 44 42 38 32 29 29 30 32 34 37 39 41 43 44 44 44 43 43 46 47 47 49 51 55 57 58 59 58 57 56 54 53 52 50 46 44 43 41 38 35 34 33 33
28 28 28 25 22 28 38 38 37 39 38 37 39 40 40 41 43 45 44 40 38 40 42 43 47 54 56 51 47 49 50 50 50 50 49 47 46 45 45 45 44 43 42 38 32 29 27 28 29 30 32 35 36 38 40 43 46 49 49 47 46 48 50 52 53 55 57 59 60 60 60 58 57 55 53 52 49 46 44 44 42 39 36 35 34 34
29 29 28 23 19 27 37 34 33 32 23 23 36 43 44 46 47 46 46 46 46 47 47 48 50 52 51 48 48 50 50 48 47 46 45 45 46 44 41 39 38 39 36 30 26 26 28 30 31 33 34 35 36 37 39 41 44 47 48 49 49 51 52 54 56 58 58 59 59 58 57 56 56 54 53 50 48 46 45 45 43 40 37 36 36 35
29 29 29 25 20 25 33 30 26 20 13 21 38 41 39 41 41 40 42 44 45 46 47 49 51 49 46 47 49 49 47 45 42 42 45 45 43 40 35 33 35 36 31 27 28 31 33 33 34 35 36 35 35 37 38 40 42 44 45 47 49 51 52 54 56 56 55 54 53 53 52 51 52 51 50 49 47 46 45 45 43 41 39 38 38 37
28 28 28 27 24 25 31 25 13 9 16 31 39 37 36 38 38 38 40 41 41 41 43 46 46 46 45 46 47 46 44 41 36 38 43 42 38 35 34 35 38 35 30 29 32 34 35 35 35 35 35 34 34 34 36 37 38 40 42 45 46 48 49 50 51 50 49 48 48 48 48 48 48 48 48 47 46 45 44 44 43 42 41 40 39 39
28 28 28 28 26 22 22 19 11 9 20 29 30 33 38 36 34 36 38 40 41 39 39 41 41 42 43 44 45 44 40 37 35 37 41 40 36 32 32 35 36 32 30 31 33 34 34 34 33 33 34 34 33 34 35 36 36 37 39 39 40 42 42 43 44 45 45 45 46 45 46 46 46 46 46 46 45 44 44 44 44 43 42 41 40 40
31 30 29 28 26 23 21 23 23 21 25 30 34 37 39 37 36 35 36 40 43 39 38 38 38 40 42 41 42 40 37 38 40 43 42 37 32 27 26 29 30 30 32 33 33 33 32 30 29 31 33 34 35 34 34 35 35 36 35 35 35 36 37 38 39 40 41 42 42 42 43 43 43 44 45 44 44 44 44 44 44 44 43 42 41 41
38 36 33 28 26 27 26 23 19 15 20 35 45 44 42 43 42 36 34 39 43 40 38 37 37 38 39 38 36 34 35 38 41 42 40 34 30 27 27 29 31 32 35 36 36 35 33 31 32 33 33 34 35 35 35 34 34 34 35 35 35 35 35 36 36 36 37 38 39 40 41 41 42 43 42 42 42 42 42 43 44 44 43 43 42 41
40 41 41 36 30 29 27 20 15 14 22 37 45 43 41 41 38 32 29 33 39 39 36 34 34 33 33 34 32 31 33 37 40 40 37 34 31 29 31 34 36 37 37 37 38 38 38 37 37 37 37 36 36 37 36 34 34 34 34 34 33 33 32 32 32 33 35 36 37 38 38 39 39 39 39 40 41 42 43 43 44 44 43 43 42 41
33 36 39 40 38 37 33 26 22 24 31 40 44 44 42 38 31 22 17 19 28 32 32 33 33 31 32 33 32 31 32 35 38 39 40 38 34 32 36 41 42 41 40 39 40 42 42 41 40 39 39 39 39 39 36 34 34 33 33 32 33 33 33 33 34 35 35 36 37 37 38 38 39 40 41 42 43 43 44 44 44 43 42 42 41 40
29 33 38 41 43 43 39 32 29 33 40 47 48 46 45 39 29 21 18 18 22 26 29 31 29 26 26 27 28 29 31 33 36 39 43 43 39 37 40 43 45 44 44 43 43 45 44 42 41 40 40 39 39 38 37 36 36 35 35 35 36 37 37 37 37 37 37 38 38 39 40 41 42 43 43 43 43 43 42 42 41 41 40 40 39 38
23 26 30 36 39 40 40 37 32 34 42 49 48 46 44 38 30 25 26 28 29 30 34 35 31 28 27 25 25 28 31 33 36 39 42 43 42 41 41 43 45 46 45 44 45 46 45 43 41 39 38 37 37 37 37 38 38 37 38 39 39 40 39 39 38 38 39 39 40 41 41 42 42 42 42 41 40 39 39 39 38 38 38 38 37 35
20 17 17 22 26 28 31 29 20 20 33 44 45 41 37 33 29 28 27 27 29 32 35 36 34 32 32 30 29 30 31 33 35 37 39 42 42 43 42 43 44 45 45 45 46 46 46 44 42 39 38 36 35 36 37 37 38 39 40 40 39 39 39 39 39 39 40 41 41 42 42 42 41 41 39 38 37 36 36 36 36 36 36 35 34 32
27 25 22 24 23 20 20 19 14 15 23 30 29 25 22 22 26 29 27 25 25 25 29 34 37 37 37 38 37 35 36 37 37 39 41 42 42 43 42 41 41 43 45 47 47 47 46 44 42 41 40 38 37 36 37 38 39 40 39 38 38 37 38 39 40 40 41 41 42 42 42 42 41 39 37 36 35 35 35 35 35 34 33 31 29 27
32 32 32 33 34 30 27 27 25 23 25 25 25 24 24 26 32 37 38 35 32 27 25 29 34 34 34 35 35 35 36 37 38 40 42 44 45 45 44 44 45 46 48 48 48 47 45 43 42 42 41 41 40 40 41 42 42 41 40 39 38 38 39 40 40 41 42 42 42 42 41 40 38 37 36 35 34 34 33 32 32 30 28 27 25 25
26 27 27 30 34 37 38 41 42 41 42 42 41 41 42 43 43 42 41 38 37 36 35 34 35 35 34 34 34 34 33 33 34 35 36 39 42 43 44 45 45 45 47 47 47 47 46 45 43 43 43 44 45 45 46 45 43 42 41 40 39 40 40 40 41 41 41 42 41 41 39 38 36 35 34 33 32 31 29 28 27 26 25 25 25 25
26 27 28 27 28 30 32 36 40 42 43 42 39 37 37 37 35 34 32 29 29 31 34 36 38 40 40 41 41 39 38 38 37 35 35 35 37 38 40 41 41 42 44 45 46 46 46 45 45 45 45 45 45 44 44 43 42 42 41 41 41 41 41 41 41 41 41 41 41 39 38 37 35 33 32 30 29 28 26 25 25 25 25 25 25 25
29 30 32 33 34 35 36 37 39 41 40 36 33 31 31 31 32 32 31 29 28 28 29 29 31 34 38 40 41 41 41 41 40 38 37 36 36 36 38 39 41 43 43 44 45 45 44 44 44 44 43 42 40 40 39 39 40 41 41 42 42 42 42 42 41 40 40 40 39 38 37 35 34 32 31 29 28 26 25 25 25 25 24 24 25 25
32 31 33 33 35 38 41 42 43 44 43 40 38 39 39 38 36 34 32 30 29 28 27 26 26 27 31 34 36 37 38 38 38 37 38 38 38 38 38 40 42 43 44 45 46 46 45 44 43 42 41 40 38 37 37 38 39 40 41 42 43 43 43 43 42 41 40 39 37 36 34 33 32 30 29 27 25 25 24 25 25 25 24 24 24 24
36 37 37 36 37 40 41 42 41 41 41 42 42 43 45 43 40 38 37 37 35 33 32 31 30 29 29 30 32 33 35 36 35 33 34 36 38 39 39 41 43 44 45 46 47 48 47 46 45 45 44 41 39 37 36 37 37 38 39 41 42 43 43 43 42 40 38 36 34 33 31 30 29 27 25 24 24 25 26 26 26 25 24 23 22 21
40 41 40 40 42 44 44 43 41 40 41 43 44 45 46 46 46 47 47 45 44 42 41 40 39 37 35 33 32 32 35 36 35 33 33 34 35 36 37 39 41 43 45 47 49 50 49 46 45 44 42 41 40 39 37 36 35 36 37 39 42 43 44 43 42 40 37 34 33 31 30 28 27 26 26 26 27 27 27 26 25 24 23 21 20 19
Wind_Direction
210 211 209 209 210 212 214 203 194 217 231 210 193 207 217 225 248 261 254 255 264 267 268 269 270 271 268 260 256 256 257 260 264 267 267 271 274 274 275 280 282 285 290 289 282 277 274 271 270 271 272 274 276 277 277 276 276 274 273 274 273 272 272 271 270 269 269 270 272 273 274 275 275 274 272 271 271 271 270 270 273 274 274 273 275 276
208 214 214 215 214 210 216 212 206 219 227 225 226 223 225 232 246 260 261 262 268 269 268 270 271 269 267 264 258 255 253 254 260 268 274 276 277 277 276 279 282 284 286 284 282 281 278 273 269 270 273 277 280 282 282 281 280 277 276 277 276 273 272 272 272 271 271 271 273 274 274 274 273 272 271 270 270 269 267 267 271 273 273 274 275 277
212 217 213 213 217 209 205 212 214 220 226 231 237 239 241 245 253 263 268 268 266 270 272 272 271 267 267 268 261 254 253 254 259 264 269 273 276 279 282 284 283 283 282 280 280 278 276 274 272 273 276 280 283 284 286 286 286 284 282 281 280 277 274 273 272 272 273 272 272 273 273 273 273 272 272 271 270 270 269 267 269 272 273 274 276 277
219 220 213 213 219 215 210 214 221 228 230 234 240 243 244 245 259 265 268 269 264 271 276 277 277 269 264 266 264 261 258 257 261 266 267 270 275 279 283 285 285 286 284 281 278 274 273 274 276 280 283 287 289 290 291 291 290 289 287 285 283 280 277 274 272 272 272 272 271 272 272 273 273 274 273 273 273 273 272 269 270 273 275 275 276 276
225 226 221 221 225 224 222 222 227 235 235 239 243 244 243 241 262 268 262 266 272 279 280 283 286 274 267 269 269 266 262 259 259 264 268 272 277 281 284 285 286 286 284 280 277 275 275 277 280 284 288 292 294 295 294 292 290 289 288 287 285 283 281 278 275 273 272 272 272 272 273 274 275 275 275 275 276 275 272 270 271 274 275 275 275 275
221 228 226 227 230 231 234 232 230 234 237 244 249 252 251 242 252 267 268 273 282 285 283 290 298 277 270 270 268 266 263 263 264 264 266 268 271 275 280 283 282 279 277 277 278 279 281 282 283 285 288 291 292 293 294 293 292 290 287 286 285 285 284 282 279 277 276 275 274 274 275 276 277 277 277 277 276 274 272 270 270 271 270 271 271 271
221 226 227 228 232 234 236 235 231 231 234 239 246 252 256 249 250 261 269 276 281 278 276 281 288 283 277 268 259 263 266 268 271 269 267 268 271 275 277 275 273 272 272 275 278 281 283 282 281 284 286 289 292 293 294 296 296 292 288 284 283 283 283 282 281 279 278 277 276 275 276 276 277 278 279 278 276 274 273 271 270 270 269 269 268 268
226 225 227 230 234 236 237 235 234 233 232 235 239 241 248 256 256 258 265 268 271 275 274 273 274 280 276 266 259 266 273 272 270 269 270 275 279 280 276 271 271 272 272 272 274 276 277 277 279 283 286 288 291 294 296 299 298 293 289 286 283 282 282 281 281 279 278 276 275 275 274 275 276 278 278 278 276 275 274 273 272 271 270 269 269 268
236 233 232 235 239 242 243 241 239 238 236 236 237 238 245 254 258 259 264 268 280 286 279 275 276 266 266 269 267 271 278 276 270 270 275 279 281 282 279 275 273 272 271 270 270 269 271 275 279 281 284 286 288 294 299 300 298 294 291 289 286 285 285 285 284 283 281 278 276 275 274 275 276 277 278 278 277 276 276 275 273 272 271 270 269 269
242 239 236 239 242 245 246 246 244 241 243 243 237 237 242 248 253 261 274 283 292 285 271 272 272 260 272 278 273 272 278 278 275 278 281 282 283 282 280 275 271 269 269 269 270 270 269 272 277 278 278 281 287 294 300 302 301 295 290 289 289 288 288 288 287 286 283 280 278 276 275 276 276 276 276 276 276 276 276 275 274 273 272 271 270 270
238 239 236 237 240 244 247 248 246 242 243 247 242 238 241 249 260 271 281 289 296 274 269 273 265 256 273 290 281 276 278 282 287 291 288 286 286 286 287 280 273 269 271 277 276 269 266 274 278 274 272 277 287 295 302 304 303 296 290 289 290 291 289 288 286 284 283 281 279 278 277 277 276 276 275 275 276 276 275 275 274 273 272 271 270 269
234 233 234 237 239 242 245 244 243 240 238 241 240 236 241 260 274 276 273 270 261 261 270 261 237 236 241 251 275 267 270 278 289 295 292 288 284 290 291 281 278 279 278 279 273 261 268 286 283 271 269 277 287 296 302 304 303 298 292 292 293 292 289 286 284 282 281 281 281 281 281 280 279 278 277 277 278 277 276 274 273 272 271 270 269 268
238 237 237 239 240 240 239 236 232 231 231 231 228 215 207 250 277 257 240 218 231 248 245 207 183 226 249 258 256 243 256 268 273 282 282 274 279 287 283 275 287 298 287 268 251 257 281 290 280 267 270 281 290 296 300 300 301 298 293 296 298 292 286 284 282 281 282 282 283 283 284 283 281 280 280 280 279 278 276 274 272 270 270 269 269 269
240 242 238 235 236 236 235 234 228 227 228 227 222 210 194 187 196 231 227 216 237 247 238 214 207 246 260 269 272 266 264 267 270 273 264 264 275 277 269 277 306 317 299 261 246 268 286 286 275 272 277 285 293 297 297 297 298 296 294 297 298 289 282 282 281 282 283 283 284 284 285 284 283 283 282 280 279 278 277 276 274 271 270 269 269 269
229 238 238 236 236 237 237 238 238 239 239 238 235 227 219 214 212 216 201 190 230 253 231 204 215 249 257 271 283 282 263 258 266 268 262 268 266 249 255 292 306 307 292 266 263 277 285 281 277 281 283 290 299 299 296 295 296 295 294 297 296 285 280 282 283 285 286 287 287 287 287 287 287 285 284 282 282 281 280 278 276 274 273 272 270 268
229 240 248 245 242 242 243 243 243 239 238 241 233 224 224 225 228 240 273 265 269 326 248 217 235 253 256 267 273 274 270 265 263 264 263 265 253 242 267 288 298 305 291 268 270 276 277 280 282 282 285 293 300 299 294 292 293 294 294 295 292 283 281 284 286 289 291 291 292 292 291 291 290 289 287 285 284 282 281 279 277 275 274 274 272 270
222 236 245 244 240 242 242 240 237 232 232 231 217 216 225 228 230 236 261 266 264 288 264 246 256 265 269 276 275 273 274 268 263 264 265 262 251 250 264 275 286 299 293 276 273 273 276 282 281 279 288 295 297 295 292 289 290 292 292 292 289 282 282 286 288 291 292 292 293 294 294 294 293 291 290 288 286 283 282 281 279 277 276 275 275 274
224 230 238 237 235 236 234 229 226 226 230 227 218 222 229 229 228 226 236 268 238 248 265 254 260 269 274 276 274 280 288 272 261 265 267 257 250 253 261 269 285 295 288 275 272 274 277 276 270 277 291 293 289 287 286 285 288 290 290 289 286 280 282 287 292 294 292 292 293 294 295 294 294 293 292 289 287 285 284 283 281 280 279 278 276 275
231 233 236 232 229 231 231 225 219 220 224 226 226 226 223 222 220 214 212 242 232 211 271 262 261 267 265 260 262 272 280 281 279 277 274 264 262 262 240 236 294 297 287 278 271 267 264 259 266 282 289 285 279 279 280 283 286 288 287 285 280 277 282 291 296 295 292 292 295 297 299 297 295 295 294 293 290 288 287 285 283 282 281 280 278 276
230 231 233 229 227 225 220 218 217 217 217 220 225 224 223 227 218 209 213 223 232 200 254 268 267 263 262 263 270 278 279 281 280 271 265 246 219 188 212 284 302 296 284 273 262 255 252 257 275 287 287 282 278 277 279 282 285 285 282 277 274 276 285 293 296 294 291 292 295 299 303 304 302 300 296 294 293 292 290 288 286 284 283 282 280 278
228 230 233 227 221 214 214 221 227 227 221 220 223 221 222 225 219 221 225 222 225 224 227 258 272 262 263 267 277 279 271 265 256 239 222 202 192 236 297 302 297 286 272 257 249 251 257 268 285 294 290 285 281 279 281 282 281 278 272 268 270 279 288 293 295 293 291 292 294 296 301 304 308 308 304 298 293 290 290 289 288 287 285 283 282 280
225 229 232 227 224 224 229 236 239 239 237 236 235 234 233 231 223 223 232 224 223 227 233 231 272 267 265 266 266 258 233 234 245 235 234 244 264 289 300 298 280 266 258 247 247 258 268 280 293 297 288 283 283 283 283 280 275 267 261 264 273 281 287 292 295 296 295 297 298 299 301 303 305 309 310 307 299 291 288 288 288 287 285 284 283 281
229 229 230 231 236 242 245 244 239 237 239 240 241 243 243 238 227 219 218 227 224 225 237 241 261 265 263 263 262 258 253 259 267 270 274 282 291 297 298 285 270 260 253 259 272 280 288 295 298 290 282 286 288 284 282 276 266 256 257 268 278 282 288 293 297 301 302 303 303 303 304 305 305 306 309 312 309 300 292 288 287 286 285 285 283 282
225 225 227 228 238 248 250 246 240 237 235 233 235 238 239 236 232 228 227 236 234 225 232 233 247 259 260 263 265 266 269 272 275 279 282 289 295 297 287 275 273 268 272 286 294 297 304 305 294 282 285 293 290 279 273 268 257 252 261 274 280 284 290 294 298 304 307 307 307 306 306 306 306 306 307 311 313 309 301 293 288 287 285 284 283 282
219 221 222 218 224 242 241 237 231 228 228 230 234 235 236 236 235 233 233 237 242 239 234 227 234 255 260 266 270 272 277 278 279 283 285 289 294 295 291 288 285 281 288 297 298 301 308 302 283 285 293 296 292 274 261 256 251 254 267 275 280 285 291 295 299 303 305 307 307 306 306 305 305 306 306 309 311 310 306 300 294 290 287 286 285 284
219 220 219 214 203 211 227 227 226 228 227 229 234 236 236 236 231 227 228 228 234 241 239 234 241 255 262 266 268 271 276 278 280 283 284 288 293 295 295 295 291 289 294 297 292 298 306 297 283 289 290 291 286 264 251 249 251 260 271 278 283 289 293 297 299 301 301 303 304 304 304 303 303 304 305 307 309 309 307 304 299 294 291 289 288 287
220 223 223 223 224 226 229 211 181 228 230 229 236 239 238 237 234 230 226 225 231 240 243 243 246 255 261 265 267 268 270 273 276 280 284 288 292 293 294 293 293 294 294 293 293 300 306 296 282 282 281 276 268 257 252 254 257 264 273 280 285 290 295 298 299 298 298 298 299 300 301 300 299 301 303 305 306 306 305 305 303 297 293 291 290 290
233 232 228 229 231 233 232 218 163 165 221 229 239 243 241 239 236 230 228 234 238 238 245 249 249 253 260 266 268 268 271 274 277 280 285 288 290 292 293 293 294 295 294 294 297 301 304 299 287 280 274 268 263 261 261 260 262 266 272 279 284 289 293 295 294 294 294 296 297 297 298 298 297 298 299 302 303 303 302 303 303 298 294 292 291 290
239 240 239 237 238 237 235 232 225 220 231 241 242 242 243 242 238 234 235 241 241 238 244 252 254 255 260 265 267 268 272 276 277 280 283 284 285 287 290 291 292 293 293 294 298 301 304 303 296 283 273 266 264 263 262 261 263 265 269 275 281 285 288 289 289 290 291 292 294 294 295 295 296 296 297 298 300 300 299 300 301 298 294 292 291 290
240 243 246 245 245 246 245 243 243 241 247 254 254 249 246 243 244 244 245 248 248 247 251 256 260 261 261 262 265 268 272 274 276 279 280 282 285 287 289 291 292 293 293 296 299 301 301 300 294 285 276 269 265 261 257 257 259 262 266 270 275 278 281 282 283 285 286 288 290 291 291 292 293 293 294 295 297 297 296 297 298 296 293 290 289 289
240 243 247 247 248 250 250 250 251 251 253 258 259 258 255 250 246 245 247 251 253 254 257 259 261 263 262 262 266 270 274 276 277 280 281 284 287 289 291 293 294 296 297 299 299 298 297 297 294 289 282 275 270 264 257 253 254 256 260 265 268 271 275 277 279 281 283 283 285 286 287 289 290 290 291 293 294 295 294 294 294 293 290 288 287 287
240 242 246 247 246 251 253 252 253 255 257 259 259 258 257 253 249 248 248 249 251 254 257 256 257 261 264 267 271 273 275 278 280 281 283 284 284 287 292 295 297 300 300 298 294 291 293 298 297 292 286 281 277 272 265 259 257 256 259 262 264 267 271 274 277 279 279 279 281 282 284 285 286 286 288 291 292 293 292 291 291 290 288 286 285 284
244 243 243 238 235 250 256 257 259 259 257 254 255 255 256 255 254 255 254 253 253 252 252 253 258 266 272 274 275 274 276 279 281 282 283 283 284 289 294 298 303 305 302 295 292 293 294 296 296 295 291 286 282 278 273 268 263 261 260 261 263 265 267 270 273 275 277 278 279 280 282 282 282 283 286 288 290 291 290 289 289 288 286 285 285 283
242 243 243 238 231 247 258 259 258 254 242 247 255 257 259 259 259 260 259 259 259 257 256 259 265 272 277 277 276 276 278 281 283 283 283 284 288 292 294 298 304 307 304 297 296 297 296 295 295 295 294 291 288 284 281 277 274 271 269 267 267 267 269 270 273 275 277 278 279 279 279 279 279 281 285 287 288 289 288 286 286 285 285 286 285 284
237 238 241 239 233 244 257 258 251 239 247 256 261 263 263 263 264 265 265 265 265 265 264 264 267 272 275 276 277 278 281 285 286 283 281 282 286 290 292 293 297 301 300 295 293 295 296 296 295 293 292 292 291 289 288 287 285 283 281 279 277 276 276 276 277 278 279 279 279 278 278 278 279 282 284 285 286 286 284 283 284 284 285 285 284 283
240 239 239 237 233 237 247 246 235 247 260 262 264 265 263 262 260 259 261 265 268 269 269 268 269 273 276 277 278 279 282 287 286 280 278 280 285 291 295 293 292 294 293 290 290 293 294 294 292 289 288 289 289 288 289 289 288 287 285 283 282 282 282 282 282 282 281 280 279 279 278 279 280 281 281 282 283 282 282 282 283 284 284 284 283 282
242 242 242 239 237 236 239 245 252 260 264 261 258 259 262 262 262 261 263 270 275 276 275 274 273 274 276 276 277 281 285 287 285 278 274 279 289 295 296 290 287 289 289 290 293 293 290 287 284 283 284 284 284 284 285 286 287 286 285 284 283 284 284 283 283 283 282 281 280 279 278 278 278 278 279 280 280 280 280 281 282 282 283 283 282 281
243 243 244 243 240 239 241 249 257 256 256 256 257 261 265 266 270 273 269 270 276 279 278 277 276 276 279 279 280 285 286 285 282 275 272 283 298 298 289 283 282 284 287 290 293 291 286 282 279 277 278 279 280 280 281 283 283 282 281 279 279 280 281 280 280 280 280 279 278 277 276 276 276 277 278 278 278 278 279 279 280 281 281 281 280 279
244 245 246 244 242 241 238 238 243 243 250 257 262 267 269 268 272 273 263 263 272 275 274 273 271 270 272 275 277 281 279 278 279 278 280 292 300 294 284 280 279 280 284 287 289 288 286 284 281 278 277 277 277 279 280 281 281 280 278 277 276 277 278 279 280 280 280 280 278 277 276 275 275 275 275 276 276 277 278 278 278 279 279 279 278 277
239 241 241 238 239 241 240 240 245 249 253 259 264 269 270 271 270 262 250 259 270 270 268 267 265 262 263 265 267 266 265 267 273 277 279 282 283 281 279 279 278 279 281 282 282 283 283 284 283 282 280 279 278 279 279 279 278 277 275 275 276 277 279 280 281 281 280 279 278 277 276 275 275 275 275 276 276 277 277 277 277 277 276 276 275 275
224 229 232 232 235 238 239 241 247 251 255 260 265 268 268 269 264 246 238 252 260 261 264 266 266 265 265 265 264 262 260 260 264 270 273 274 275 275 275 277 278 279 280 279 278 279 281 282 282 281 280 280 279 277 276 274 272 271 272 274 277 280 282 282 281 280 279 278 276 276 275 275 275 276 276 276 277 276 276 276 275 274 274 273 273 273
217 223 228 229 231 234 236 238 244 252 257 260 263 265 265 264 260 251 253 258 258 258 263 265 265 265 265 265 265 265 265 264 265 269 272 274 275 276 276 277 278 278 279 279 280 282 284 284 282 279 277 276 274 272 270 269 268 269 271 274 278 280 281 281 280 279 278 277 277 277 277 277 277 277 277 277 276 275 274 273 272 271 271 271 271 272
230 232 240 238 235 236 237 237 238 247 254 257 259 261 262 259 256 255 255 254 254 255 257 260 263 265 265 265 264 262 264 266 268 270 272 274 275 275 274 275 277 278 280 281 283 285 287 286 283 277 273 270 268 267 267 267 269 271 274 276 277 278 278 278 278 277 277 277 277 278 278 279 279 279 278 277 275 273 272 270 269 268 268 269 269 269
242 241 245 247 248 246 241 242 247 251 254 257 259 257 255 256 262 266 263 255 251 251 251 253 259 264 268 270 269 267 265 266 267 270 272 274 274 274 273 273 275 278 281 283 285 286 286 285 282 277 272 269 267 267 269 273 276 277 278 278 277 277 277 276 276 276 277 277 277 277 278 278 278 278 277 275 273 272 270 268 267 266 266 265 264 261
248 248 250 250 252 252 251 253 260 262 262 265 266 264 264 270 277 281 282 279 275 272 267 262 261 265 271 275 277 276 274 273 273 273 273 273 273 273 274 275 277 280 282 284 284 284 282 280 278 276 274 272 270 271 274 279 281 281 280 280 278 277 276 276 276 276 276 277 278 278 277 277 277 276 275 274 272 269 267 266 264 263 261 259 258 259
246 248 249 249 250 254 255 256 259 262 265 269 271 272 274 276 278 280 282 284 283 281 279 277 274 274 278 281 283 283 283 283 283 283 282 280 278 277 278 279 279 280 281 282 282 281 280 279 276 273 273 273 273 274 277 280 281 281 281 280 279 278 277 276 276 276 276 277 278 278 277 277 276 274 272 270 268 265 263 261 259 259 259 260 262 265
240 240 240 241 244 251 254 255 256 259 264 268 272 273 272 272 273 275 279 285 287 285 282 281 280 280 280 282 284 285 286 287 288 288 288 287 284 282 281 280 280 280 280 280 281 280 279 279 277 274 273 274 276 278 279 280 280 280 281 280 279 279 278 278 278 277 277 277 276 276 275 275 273 271 268 265 262 258 256 257 259 262 265 266 268 269
242 244 245 246 248 252 254 254 255 256 258 262 267 268 267 267 270 273 276 279 282 283 282 280 279 279 280 281 282 284 284 285 286 287 287 286 285 284 282 280 280 281 281 280 280 279 279 278 277 276 276 277 279 280 281 280 279 279 280 281 281 280 279 279 278 277 276 275 273 272 272 270 268 265 261 257 255 254 256 261 265 268 269 269 269 268
244 245 248 250 252 254 256 258 260 261 261 262 262 263 266 270 274 275 275 274 274 276 277 277 276 276 278 280 281 281 281 282 282 282 283 282 282 283 282 281 279 279 279 279 278 278 277 277 276 276 278 280 281 282 283 282 280 280 281 282 281 280 280 279 278 277 274 271 268 266 264 262 260 257 254 253 255 258 263 266 268 269 269 268 266 265
245 247 249 251 253 255 259 262 265 267 268 267 265 264 266 270 274 274 274 274 275 275 277 279 278 276 275 275 276 277 278 278 278 279 279 278 279 280 280 279 278 276 276 276 276 276 277 277 277 278 280 281 280 281 283 284 283 283 284 284 283 282 281 279 277 273 268 263 259 257 256 255 252 251 252 256 261 263 265 265 265 266 266 264 261 259
248 251 252 253 256 260 264 266 268 270 271 272 272 272 271 272 274 275 275 277 278 278 278 279 278 276 274 271 269 271 273 275 276 278 279 277 276 277 278 278 278 277 277 276 276 277 277 278 279 279 280 279 277 278 280 281 281 282 282 283 284 284 283 280 275 269 262 259 258 257 256 255 254 255 257 260 263 265 265 264 263 263 261 257 254 251
Height
3147 3148 3148 3149 3151 3152 3153 3155 3157 3157 3158 3159 3160 3161 3162 3163 3164 3163 3163 3163 3164 3163 3161 3161 3160 3159 3159 3160 3161 3162 3162 3161 3160 3161 3162 3163 3164 3164 3165 3165 3165 3165 3165 3165 3165 3165 3165 3166 3166 3165 3165 3165 3165 3165 3165 3165 3166 3166 3166 3166 3167 3168 3167 3167 3168 3168 3169 3169 3170 3170 3171 3171 3171 3171 3171 3171 3172 3172 3172 3172 3172 3172 3173 3173 3173 3173
3146 3146 3147 3149 3151 3152 3153 3154 3155 3156 3157 3158 3159 3160 3161 3162 3163 3162 3162 3163 3163 3161 3160 3160 3158 3156 3156 3158 3159 3160 3159 3159 3159 3160 3161 3161 3162 3162 3163 3163 3163 3163 3163 3163 3163 3163 3163 3163 3163 3163 3163 3163 3162 3163 3162 3162 3163 3163 3163 3163 3164 3164 3164 3165 3165 3166 3166 3167 3167 3167 3167 3168 3168 3168 3168 3169 3169 3170 3170 3169 3168 3169 3170 3170 3170 3170
3144 3145 3147 3149 3149 3151 3152 3153 3154 3155 3156 3157 3158 3159 3160 3161 3162 3162 3162 3162 3161 3160 3159 3159 3156 3153 3154 3155 3156 3158 3157 3157 3158 3159 3159 3159 3160 3160 3161 3161 3161 3161 3161 3161 3161 3161 3160 3160 3161 3161 3161 3161 3161 3160 3160 3160 3160 3160 3160 3160 3161 3161 3161 3162 3162 3163 3163 3164 3164 3163 3164 3164 3164 3164 3165 3165 3166 3167 3167 3167 3166 3166 3167 3167 3168 3168
3142 3144 3146 3147 3148 3149 3151 3152 3153 3154 3155 3156 3157 3158 3159 3160 3161 3161 3160 3160 3160 3159 3158 3157 3154 3150 3151 3152 3153 3155 3155 3155 3156 3157 3157 3157 3157 3158 3159 3159 3159 3159 3159 3159 3159 3159 3158 3158 3158 3159 3159 3159 3159 3158 3158 3157 3157 3157 3157 3157 3158 3158 3158 3159 3159 3160 3160 3161 3160 3160 3160 3160 3161 3161 3162 3162 3163 3164 3164 3164 3163 3163 3164 3164 3165 3165
3142 3143 3144 3145 3147 3148 3149 3150 3152 3153 3154 3155 3156 3157 3158 3160 3160 3159 3159 3159 3159 3159 3157 3156 3152 3147 3147 3150 3150 3152 3152 3152 3154 3154 3154 3155 3155 3156 3156 3157 3157 3156 3156 3156 3156 3156 3156 3156 3157 3157 3157 3157 3157 3156 3155 3155 3155 3154 3154 3154 3154 3155 3155 3156 3156 3157 3157 3157 3157 3157 3157 3157 3157 3158 3158 3159 3160 3161 3161 3161 3160 3160 3161 3161 3161 3161
3141 3141 3142 3144 3145 3147 3148 3149 3151 3152 3153 3154 3155 3156 3157 3159 3159 3157 3158 3159 3158 3158 3156 3156 3153 3145 3144 3147 3147 3148 3149 3149 3151 3151 3152 3153 3153 3154 3154 3154 3154 3154 3154 3154 3154 3153 3154 3155 3155 3156 3156 3155 3155 3154 3153 3153 3152 3152 3152 3151 3151 3152 3152 3153 3153 3154 3154 3154 3154 3154 3154 3154 3154 3155 3155 3156 3157 3157 3157 3158 3157 3157 3157 3157 3157 3157
3138 3139 3141 3143 3144 3145 3147 3148 3150 3151 3152 3153 3153 3154 3156 3157 3157 3157 3158 3158 3158 3157 3155 3156 3155 3148 3141 3141 3145 3147 3146 3146 3148 3148 3150 3151 3151 3152 3152 3152 3151 3151 3152 3152 3152 3151 3151 3152 3153 3153 3154 3153 3153 3152 3151 3150 3150 3149 3149 3149 3149 3149 3149 3150 3150 3150 3150 3150 3151 3151 3151 3151 3151 3151 3152 3153 3153 3153 3154 3154 3154 3154 3153 3153 3153 3153
3136 3138 3140 3141 3142 3144 3145 3147 3148 3150 3151 3152 3152 3153 3154 3155 3156 3156 3157 3158 3156 3155 3154 3154 3156 3152 3142 3137 3141 3144 3143 3144 3145 3146 3147 3148 3148 3149 3150 3149 3149 3149 3150 3150 3150 3150 3150 3150 3151 3151 3151 3151 3150 3150 3149 3148 3148 3147 3147 3146 3146 3146 3146 3146 3147 3147 3147 3147 3147 3148 3148 3148 3148 3148 3148 3149 3149 3149 3149 3150 3150 3150 3150 3149 3149 3149
3134 3136 3139 3140 3141 3142 3144 3146 3147 3149 3150 3150 3151 3152 3153 3154 3155 3155 3156 3156 3156 3154 3151 3151 3154 3151 3141 3136 3139 3140 3139 3140 3142 3143 3144 3145 3146 3146 3146 3146 3146 3146 3147 3147 3148 3148 3148 3148 3148 3149 3149 3148 3148 3147 3147 3146 3145 3145 3144 3144 3144 3144 3144 3143 3144 3144 3144 3144 3144 3144 3144 3144 3144 3145 3145 3145 3145 3146 3145 3146 3146 3146 3146 3145 3146 3146
3132 3135 3137 3138 3139 3140 3142 3144 3146 3148 3148 3148 3150 3151 3152 3153 3154 3155 3155 3155 3156 3153 3147 3148 3152 3148 3138 3134 3137 3137 3136 3138 3140 3141 3142 3142 3143 3143 3143 3144 3144 3144 3144 3145 3146 3146 3146 3146 3146 3146 3146 3146 3145 3145 3144 3143 3143 3143 3142 3142 3142 3142 3141 3141 3141 3141 3141 3141 3141 3141 3141 3141 3141 3141 3141 3141 3141 3142 3141 3142 3142 3142 3142 3142 3142 3142
3130 3133 3135 3136 3137 3138 3140 3142 3144 3146 3147 3147 3149 3150 3152 3152 3153 3155 3154 3154 3156 3149 3143 3145 3149 3148 3138 3130 3132 3134 3134 3136 3138 3139 3139 3139 3140 3141 3142 3142 3142 3142 3142 3143 3144 3144 3144 3144 3144 3144 3143 3143 3142 3142 3141 3140 3140 3140 3140 3140 3140 3139 3139 3139 3139 3138 3138 3138 3138 3138 3138 3138 3138 3138 3138 3137 3137 3137 3137 3138 3138 3138 3138 3138 3138 3138
3128 3131 3132 3134 3136 3136 3138 3140 3142 3144 3144 3145 3147 3149 3151 3152 3152 3153 3152 3154 3153 3146 3142 3143 3146 3147 3138 3127 3129 3133 3133 3135 3137 3138 3138 3137 3138 3139 3141 3141 3141 3140 3139 3140 3141 3141 3141 3141 3141 3141 3141 3140 3140 3139 3139 3138 3137 3137 3138 3138 3137 3137 3136 3136 3136 3135 3135 3135 3135 3135 3135 3135 3135 3134 3134 3134 3133 3134 3134 3134 3134 3134 3134 3134 3134 3134
3126 3128 3130 3132 3133 3134 3135 3137 3139 3141 3142 3144 3146 3148 3151 3152 3152 3152 3150 3150 3148 3144 3142 3143 3145 3142 3129 3123 3128 3131 3132 3135 3136 3137 3137 3136 3136 3137 3138 3139 3138 3138 3136 3137 3138 3138 3138 3138 3138 3138 3138 3138 3138 3137 3136 3135 3135 3134 3135 3135 3135 3134 3133 3133 3133 3133 3132 3132 3132 3132 3132 3132 3132 3131 3131 3131 3130 3130 3130 3130 3130 3130 3129 3129 3130 3130
3124 3125 3126 3128 3129 3130 3132 3133 3136 3138 3140 3142 3143 3146 3148 3150 3152 3150 3147 3146 3144 3142 3141 3142 3144 3136 3122 3121 3125 3126 3129 3132 3132 3135 3135 3135 3135 3135 3135 3135 3135 3135 3136 3136 3137 3136 3136 3135 3135 3135 3136 3136 3135 3134 3134 3133 3132 3132 3132 3132 3132 3131 3130 3130 3130 3131 3130 3130 3129 3129 3129 3129 3129 3128 3128 3127 3127 3127 3127 3126 3126 3125 3125 3125 3126 3126
3121 3121 3121 3123 3125 3128 3129 3131 3134 3137 3139 3139 3141 3143 3143 3144 3145 3144 3143 3143 3141 3140 3140 3141 3139 3127 3119 3121 3121 3122 3127 3129 3130 3132 3133 3133 3133 3133 3133 3132 3132 3133 3134 3135 3135 3134 3134 3133 3133 3133 3133 3133 3132 3132 3131 3130 3129 3129 3129 3129 3129 3129 3128 3128 3128 3128 3128 3128 3127 3127 3126 3126 3125 3125 3125 3124 3123 3123 3123 3123 3122 3122 3121 3121 3121 3121
3118 3117 3118 3121 3124 3126 3128 3130 3132 3135 3136 3137 3139 3141 3139 3138 3140 3140 3140 3140 3140 3140 3137 3136 3129 3119 3118 3120 3120 3122 3124 3126 3129 3129 3131 3132 3132 3132 3131 3130 3130 3131 3131 3132 3132 3132 3132 3131 3131 3130 3130 3130 3129 3129 3128 3127 3127 3126 3126 3126 3126 3126 3126 3126 3126 3126 3126 3125 3125 3124 3124 3123 3122 3122 3121 3121 3120 3119 3119 3119 3119 3118 3117 3117 3117 3117
3115 3116 3117 3119 3121 3123 3126 3128 3130 3131 3132 3134 3135 3134 3133 3135 3138 3140 3139 3138 3140 3139 3132 3129 3123 3116 3118 3117 3115 3119 3121 3121 3125 3126 3127 3129 3129 3130 3129 3129 3130 3129 3129 3130 3129 3129 3129 3128 3128 3127 3127 3127 3127 3127 3126 3125 3124 3123 3123 3123 3124 3124 3124 3124 3124 3124 3123 3123 3123 3122 3121 3120 3119 3118 3118 3117 3116 3116 3115 3115 3115 3114 3114 3113 3113 3113
3114 3115 3115 3116 3118 3120 3122 3125 3127 3127 3129 3129 3129 3129 3132 3135 3136 3138 3138 3137 3139 3137 3128 3125 3121 3116 3118 3115 3111 3115 3118 3119 3122 3123 3124 3126 3126 3127 3128 3128 3129 3128 3128 3127 3126 3127 3126 3126 3126 3125 3126 3126 3125 3124 3123 3122 3121 3120 3120 3120 3121 3121 3121 3121 3121 3121 3120 3120 3120 3119 3118 3118 3117 3116 3115 3114 3113 3112 3111 3111 3111 3110 3110 3109 3109 3109
3112 3113 3112 3113 3114 3116 3120 3122 3123 3124 3125 3124 3124 3127 3130 3132 3132 3134 3136 3134 3135 3135 3128 3121 3119 3116 3113 3109 3108 3114 3116 3117 3119 3120 3122 3123 3123 3124 3125 3126 3127 3127 3127 3126 3125 3125 3124 3123 3123 3123 3124 3124 3123 3122 3120 3119 3118 3117 3117 3118 3118 3118 3118 3118 3118 3118 3117 3116 3116 3116 3116 3115 3114 3113 3112 3111 3110 3109 3108 3107 3106 3106 3106 3106 3105 3105
3110 3110 3109 3110 3111 3114 3116 3117 3117 3118 3120 3121 3123 3126 3127 3128 3129 3129 3131 3130 3131 3133 3128 3121 3118 3111 3105 3105 3109 3113 3114 3116 3117 3117 3118 3119 3119 3120 3121 3122 3124 3124 3124 3123 3122 3122 3121 3121 3121 3121 3122 3121 3119 3118 3117 3116 3115 3114 3114 3115 3115 3115 3115 3114 3114 3114 3114 3113 3113 3113 3112 3112 3111 3110 3109 3108 3107 3106 3105 3104 3103 3102 3102 3101 3101 3101
3107 3106 3106 3107 3108 3110 3110 3110 3111 3113 3116 3118 3120 3122 3123 3124 3126 3127 3127 3127 3127 3128 3126 3123 3116 3103 3098 3106 3111 3111 3112 3113 3114 3114 3115 3116 3116 3117 3119 3119 3120 3120 3119 3119 3119 3118 3118 3118 3119 3119 3118 3117 3116 3115 3114 3113 3112 3111 3111 3112 3112 3112 3111 3111 3110 3110 3110 3110 3109 3109 3109 3108 3108 3107 3106 3105 3104 3102 3101 3101 3100 3099 3098 3097 3097 3096
3103 3103 3103 3104 3104 3104 3105 3107 3110 3112 3114 3115 3115 3117 3117 3119 3122 3124 3123 3122 3123 3123 3121 3122 3115 3097 3094 3106 3110 3110 3112 3111 3112 3113 3113 3114 3115 3115 3116 3116 3116 3116 3115 3115 3116 3116 3117 3116 3116 3115 3114 3113 3112 3111 3110 3109 3108 3108 3109 3109 3109 3108 3107 3107 3106 3106 3106 3106 3105 3104 3104 3104 3104 3104 3103 3102 3101 3099 3098 3097 3096 3095 3094 3093 3093 3092
3100 3100 3101 3101 3100 3101 3103 3106 3109 3109 3110 3112 3112 3112 3114 3115 3115 3117 3118 3118 3120 3120 3118 3120 3115 3095 3089 3103 3107 3106 3109 3109 3110 3112 3111 3112 3113 3112 3113 3113 3113 3113 3112 3113 3114 3114 3114 3113 3112 3111 3110 3110 3109 3108 3107 3105 3105 3106 3106 3106 3105 3104 3104 3103 3102 3102 3101 3101 3101 3100 3100 3100 3100 3100 3099 3098 3097 3096 3094 3093 3092 3091 3090 3089 3089 3088
3097 3097 3097 3098 3099 3100 3101 3103 3105 3106 3107 3107 3106 3108 3110 3110 3111 3112 3115 3116 3117 3116 3115 3117 3113 3093 3086 3097 3103 3102 3105 3106 3107 3108 3108 3108 3109 3110 3110 3110 3110 3110 3110 3110 3110 3110 3110 3109 3108 3107 3107 3107 3106 3105 3104 3103 3103 3103 3102 3102 3101 3101 3100 3099 3098 3098 3097 3097 3096 3095 3095 3095 3095 3095 3095 3094 3093 3092 3091 3089 3088 3087 3086 3085 3084 3084
3092 3092 3094 3096 3098 3098 3098 3099 3099 3101 3102 3102 3102 3105 3106 3107 3110 3111 3113 3115 3113 3111 3112 3111 3106 3093 3087 3093 3099 3099 3101 3102 3103 3104 3104 3105 3106 3106 3107 3107 3107 3106 3105 3106 3105 3105 3105 3105 3104 3104 3103 3103 3102 3101 3101 3100 3100 3100 3099 3098 3098 3097 3096 3095 3095 3094 3093 3093 3092 3091 3091 3091 3091 3091 3090 3089 3088 3087 3087 3086 3084 3083 3082 3081 3080 3079
3088 3088 3089 3091 3092 3092 3093 3093 3093 3094 3097 3098 3099 3101 3102 3104 3107 3108 3109 3111 3107 3106 3107 3103 3099 3094 3088 3089 3095 3096 3097 3097 3099 3099 3100 3101 3102 3102 3102 3102 3102 3102 3101 3101 3100 3100 3101 3101 3101 3100 3099 3099 3098 3098 3098 3098 3097 3097 3096 3094 3094 3093 3092 3090 3090 3090 3089 3088 3087 3087 3087 3086 3086 3086 3086 3085 3084 3083 3082 3081 3080 3079 3077 3076 3075 3075
3085 3085 3086 3086 3086 3087 3088 3089 3090 3091 3093 3094 3094 3096 3099 3101 3103 3105 3105 3104 3102 3102 3100 3096 3097 3094 3086 3085 3090 3093 3094 3095 3095 3096 3097 3098 3098 3098 3097 3097 3097 3097 3097 3096 3095 3096 3097 3098 3097 3096 3095 3095 3096 3096 3096 3095 3094 3093 3092 3091 3090 3088 3087 3086 3085 3085 3084 3083 3082 3083 3083 3082 3082 3081 3081 3080 3079 3078 3077 3077 3076 3074 3073 3072 3071 3070
3082 3082 3083 3084 3083 3084 3087 3087 3088 3089 3090 3091 3092 3093 3095 3097 3098 3100 3098 3097 3099 3099 3092 3090 3095 3091 3084 3084 3085 3086 3090 3092 3092 3093 3094 3094 3094 3093 3093 3092 3092 3092 3092 3091 3090 3090 3092 3093 3093 3093 3093 3093 3093 3093 3093 3092 3091 3090 3089 3088 3086 3084 3083 3082 3081 3080 3079 3077 3077 3078 3078 3077 3077 3077 3076 3076 3074 3073 3072 3072 3071 3070 3068 3067 3067 3066
3079 3078 3080 3081 3080 3081 3083 3084 3086 3087 3087 3089 3091 3091 3092 3094 3094 3094 3093 3093 3095 3091 3085 3087 3091 3087 3086 3085 3080 3081 3087 3088 3087 3089 3089 3089 3090 3090 3089 3089 3088 3087 3087 3087 3086 3085 3086 3087 3087 3087 3088 3088 3088 3088 3088 3087 3087 3086 3085 3084 3082 3081 3079 3078 3076 3075 3074 3072 3072 3073 3072 3072 3072 3072 3071 3071 3070 3069 3067 3067 3066 3065 3064 3063 3062 3061
3074 3075 3076 3078 3078 3078 3079 3081 3083 3084 3084 3084 3087 3088 3090 3091 3091 3090 3089 3088 3089 3086 3086 3088 3087 3082 3082 3081 3077 3079 3084 3084 3083 3084 3084 3084 3086 3086 3086 3085 3083 3083 3082 3082 3081 3081 3081 3081 3081 3080 3080 3080 3080 3080 3080 3080 3080 3080 3080 3079 3078 3076 3075 3073 3071 3070 3069 3068 3068 3068 3067 3067 3067 3066 3066 3066 3065 3064 3063 3062 3061 3060 3059 3059 3058 3057
3070 3071 3072 3074 3074 3074 3075 3077 3078 3079 3080 3079 3081 3084 3086 3087 3087 3085 3083 3083 3085 3084 3085 3086 3082 3074 3073 3077 3079 3079 3080 3080 3080 3079 3080 3081 3081 3081 3081 3080 3078 3078 3077 3077 3077 3076 3076 3075 3074 3074 3073 3073 3072 3072 3072 3072 3073 3072 3073 3073 3073 3071 3069 3067 3066 3065 3064 3064 3064 3063 3062 3062 3062 3061 3061 3061 3060 3059 3058 3057 3056 3056 3055 3054 3053 3053
3067 3068 3069 3071 3071 3070 3070 3072 3073 3075 3076 3075 3076 3078 3079 3079 3078 3077 3078 3080 3081 3080 3080 3080 3075 3068 3068 3076 3079 3077 3075 3076 3077 3076 3076 3077 3076 3076 3076 3075 3074 3073 3072 3072 3072 3072 3071 3070 3069 3068 3067 3066 3065 3065 3064 3065 3065 3065 3065 3066 3066 3064 3063 3061 3060 3059 3059 3059 3059 3058 3058 3057 3056 3056 3056 3055 3055 3053 3052 3051 3051 3050 3050 3049 3049 3048
3063 3065 3066 3067 3067 3066 3066 3068 3070 3071 3071 3069 3069 3070 3071 3072 3072 3072 3074 3075 3075 3074 3073 3070 3068 3068 3070 3074 3074 3072 3071 3073 3074 3074 3073 3072 3071 3072 3072 3071 3070 3069 3068 3067 3067 3067 3066 3065 3064 3063 3061 3060 3060 3059 3058 3058 3058 3058 3058 3059 3058 3057 3056 3055 3053 3053 3053 3054 3053 3053 3053 3052 3051 3051 3050 3050 3049 3048 3047 3046 3045 3045 3044 3044 3043 3043
3059 3061 3062 3064 3064 3062 3062 3065 3067 3066 3063 3061 3062 3065 3066 3067 3068 3068 3067 3067 3068 3068 3068 3066 3066 3068 3069 3068 3067 3067 3067 3069 3071 3070 3068 3067 3066 3066 3067 3067 3066 3065 3065 3064 3063 3062 3061 3060 3059 3058 3056 3055 3055 3054 3053 3052 3052 3052 3052 3052 3052 3051 3050 3049 3048 3048 3048 3048 3047 3047 3047 3046 3046 3046 3045 3044 3044 3042 3041 3040 3040 3039 3039 3038 3038 3037
3056 3058 3059 3060 3060 3059 3060 3063 3062 3058 3054 3055 3058 3060 3062 3062 3063 3062 3060 3060 3062 3063 3063 3064 3064 3064 3064 3063 3062 3062 3063 3065 3067 3065 3062 3062 3063 3063 3063 3063 3062 3062 3061 3060 3058 3057 3056 3055 3054 3053 3052 3051 3050 3050 3049 3048 3048 3048 3047 3046 3046 3045 3045 3044 3043 3043 3042 3042 3041 3041 3041 3041 3041 3040 3039 3038 3038 3037 3036 3035 3034 3034 3034 3033 3033 3032
3053 3055 3055 3055 3056 3057 3057 3056 3054 3050 3050 3053 3054 3055 3055 3056 3057 3056 3054 3054 3057 3059 3059 3059 3059 3060 3060 3059 3058 3058 3060 3061 3060 3058 3057 3058 3060 3061 3060 3058 3057 3057 3056 3054 3054 3052 3051 3050 3049 3048 3047 3047 3046 3045 3044 3044 3043 3043 3042 3041 3041 3040 3039 3039 3038 3037 3037 3036 3036 3035 3035 3035 3035 3034 3033 3033 3032 3032 3031 3030 3029 3029 3028 3028 3027 3027
3050 3051 3052 3052 3052 3053 3053 3050 3048 3049 3048 3048 3048 3048 3049 3049 3050 3052 3050 3048 3052 3055 3054 3054 3054 3055 3055 3054 3054 3055 3056 3056 3053 3050 3052 3055 3057 3058 3057 3054 3052 3051 3050 3049 3048 3047 3047 3046 3045 3044 3043 3042 3041 3040 3040 3039 3038 3038 3037 3037 3036 3035 3035 3034 3033 3032 3032 3031 3031 3030 3030 3030 3029 3028 3028 3027 3027 3026 3026 3025 3024 3024 3023 3022 3022 3021
3046 3047 3049 3049 3048 3049 3049 3047 3047 3046 3043 3041 3042 3045 3048 3047 3048 3049 3046 3042 3046 3050 3049 3049 3050 3050 3050 3050 3051 3052 3052 3051 3046 3043 3047 3052 3052 3053 3052 3049 3047 3046 3044 3043 3042 3041 3042 3041 3041 3040 3038 3037 3036 3036 3035 3035 3034 3033 3032 3032 3031 3031 3030 3029 3028 3028 3027 3026 3026 3025 3025 3025 3024 3023 3023 3022 3022 3021 3020 3020 3019 3018 3018 3017 3017 3016
3041 3042 3045 3045 3044 3045 3045 3043 3041 3039 3036 3037 3040 3043 3045 3045 3046 3047 3042 3038 3041 3045 3045 3044 3045 3045 3045 3045 3046 3047 3048 3045 3041 3040 3045 3047 3046 3046 3045 3043 3041 3040 3039 3038 3037 3036 3036 3035 3035 3034 3033 3032 3032 3031 3031 3030 3029 3028 3027 3027 3026 3025 3024 3024 3023 3023 3022 3021 3021 3020 3020 3019 3019 3018 3018 3017 3017 3016 3015 3014 3013 3013 3012 3012 3011 3011
3035 3037 3039 3039 3038 3040 3040 3038 3036 3033 3032 3035 3038 3039 3041 3041 3042 3043 3038 3035 3038 3040 3039 3039 3038 3038 3038 3039 3040 3041 3042 3040 3038 3038 3040 3039 3037 3038 3038 3036 3035 3034 3034 3034 3032 3031 3030 3030 3029 3028 3028 3027 3027 3026 3026 3025 3024 3023 3022 3022 3021 3020 3020 3019 3018 3018 3017 3017 3016 3015 3015 3014 3014 3013 3012 3012 3011 3010 3009 3009 3008 3007 3007 3006 3006 3005
3030 3031 3032 3032 3032 3034 3035 3033 3031 3029 3029 3032 3034 3036 3037 3037 3037 3035 3032 3033 3036 3036 3034 3034 3033 3032 3033 3034 3035 3035 3036 3036 3034 3033 3033 3032 3031 3033 3033 3031 3029 3028 3028 3028 3027 3026 3026 3025 3024 3023 3023 3022 3021 3021 3020 3019 3018 3018 3017 3016 3016 3015 3015 3014 3013 3013 3012 3011 3011 3010 3009 3009 3008 3007 3006 3006 3005 3004 3003 3003 3002 3002 3001 3001 3000 3000
3026 3026 3026 3026 3027 3028 3029 3029 3027 3025 3025 3028 3030 3031 3032 3032 3029 3027 3028 3030 3032 3032 3031 3030 3028 3027 3028 3029 3030 3030 3030 3031 3030 3029 3028 3027 3026 3027 3027 3026 3025 3024 3023 3023 3022 3022 3021 3020 3020 3019 3018 3017 3016 3015 3014 3013 3013 3012 3011 3011 3010 3010 3009 3009 3008 3007 3006 3005 3005 3004 3003 3003 3002 3001 3000 2999 2999 2998 2998 2997 2997 2996 2996 2995 2995 2995
3023 3023 3021 3021 3023 3023 3024 3024 3023 3022 3022 3024 3024 3025 3026 3025 3023 3023 3024 3026 3026 3027 3027 3026 3024 3023 3023 3024 3025 3026 3025 3025 3025 3024 3023 3022 3022 3021 3021 3021 3020 3019 3019 3018 3018 3017 3017 3016 3015 3014 3013 3012 3011 3010 3009 3008 3007 3007 3006 3005 3005 3005 3004 3003 3002 3001 3000 3000 2999 2998 2997 2997 2996 2995 2994 2994 2993 2993 2992 2992 2992 2991 2991 2990 2990 2990
3018 3018 3018 3018 3019 3019 3018 3018 3018 3019 3020 3021 3021 3021 3022 3021 3019 3019 3019 3020 3020 3020 3020 3021 3020 3019 3018 3018 3019 3020 3020 3020 3020 3019 3018 3018 3017 3016 3016 3016 3015 3014 3014 3013 3012 3012 3011 3010 3010 3009 3008 3007 3006 3005 3004 3003 3002 3002 3001 3000 3000 2999 2998 2997 2996 2996 2995 2994 2993 2992 2991 2991 2990 2990 2989 2988 2988 2987 2987 2987 2986 2986 2986 2986 2986 2986
3012 3013 3014 3014 3015 3014 3013 3014 3015 3016 3017 3018 3017 3018 3019 3018 3017 3015 3014 3015 3017 3016 3016 3016 3016 3015 3014 3013 3013 3013 3014 3015 3014 3014 3013 3012 3011 3011 3011 3011 3010 3009 3008 3007 3006 3006 3005 3005 3004 3003 3003 3002 3001 3000 2999 2998 2997 2996 2996 2995 2994 2993 2993 2992 2991 2990 2989 2988 2987 2987 2986 2985 2985 2984 2984 2983 2983 2983 2982 2982 2982 2982 2982 2982 2982 2982
3009 3010 3009 3009 3009 3009 3009 3010 3012 3013 3012 3013 3014 3014 3014 3014 3013 3011 3010 3010 3011 3012 3012 3012 3011 3011 3010 3009 3008 3009 3009 3009 3009 3009 3008 3007 3006 3006 3005 3005 3004 3003 3002 3001 3000 2999 2998 2998 2998 2997 2997 2996 2996 2995 2993 2992 2992 2991 2990 2990 2989 2988 2987 2986 2985 2984 2984 2983 2982 2981 2981 2980 2980 2979 2979 2979 2978 2978 2978 2977 2978 2978 2978 2978 2978 2978
3005 3005 3004 3004 3004 3004 3004 3006 3009 3009 3009 3009 3010 3009 3009 3009 3008 3007 3006 3006 3006 3007 3008 3007 3007 3007 3006 3005 3004 3003 3004 3004 3004 3003 3003 3002 3001 3001 3000 2999 2998 2997 2996 2995 2995 2994 2993 2992 2991 2991 2990 2990 2989 2988 2987 2986 2986 2985 2985 2984 2983 2982 2981 2981 2980 2979 2978 2977 2977 2976 2976 2975 2975 2975 2974 2974 2974 2974 2974 2974 2974 2974 2974 2974 2974 2974
3000 3000 3000 3000 3000 3000 3000 3001 3004 3005 3005 3006 3006 3005 3005 3005 3004 3003 3003 3002 3003 3003 3003 3003 3002 3002 3001 3001 3000 2998 2998 2999 2999 2998 2997 2997 2996 2996 2995 2993 2992 2991 2990 2989 2989 2988 2987 2986 2985 2984 2984 2983 2983 2982 2981 2980 2980 2980 2979 2978 2978 2977 2976 2975 2974 2974 2973 2972 2972 2971 2971 2971 2970 2970 2970 2970 2970 2970 2970 2970 2970 2970 2970 2970 2970 2970
2996 2994 2995 2996 2995 2995 2995 2997 2999 2999 2999 3001 3002 3001 3001 3001 3000 2999 2999 2999 2999 2999 2999 2998 2998 2998 2997 2997 2996 2994 2993 2993 2993 2992 2992 2991 2991 2991 2990 2988 2988 2986 2985 2984 2983 2983 2982 2981 2980 2979 2978 2977 2977 2976 2975 2975 2974 2974 2974 2973 2972 2971 2971 2970 2969 2968 2968 2967 2967 2966 2966 2965 2965 2965 2965 2965 2966 2966 2966 2966 2966 2967 2967 2967 2967 2967
2990 2989 2991 2992 2990 2989 2991 2994 2995 2994 2992 2994 2997 2998 2998 2997 2996 2994 2994 2994 2995 2995 2994 2994 2993 2993 2993 2993 2992 2990 2988 2988 2988 2987 2986 2986 2986 2985 2984 2983 2982 2981 2981 2979 2978 2977 2976 2976 2975 2974 2973 2972 2972 2971 2970 2969 2969 2968 2968 2967 2967 2966 2965 2964 2964 2963 2962 2962 2961 2961 2960 2960 2960 2961 2961 2961 2962 2962 2962 2962 2962 2963 2963 2963 2963 2963
2985 2985 2987 2986 2984 2984 2987 2990 2991 2989 2987 2989 2991 2992 2992 2992 2991 2989 2989 2989 2989 2989 2990 2989 2988 2987 2987 2988 2988 2986 2984 2982 2982 2981 2980 2980 2980 2980 2979 2978 2977 2976 2975 2974 2972 2971 2971 2970 2969 2969 2968 2967 2966 2965 2965 2964 2964 2963 2962 2962 2961 2961 2960 2959 2958 2958 2957 2957 2956 2956 2956 2956 2956 2957 2957 2957 2958 2958 2958 2958 2958 2959 2959 2959 2960 2960